Simultaneous Nadir Overpasses (SNOs) Predictions

Prediction of SNOs between METOP-C and LANDSAT-8 Satellite Orbit:

Table of predicted SNOs for the next 14.0 days since TLE Epoch: 2/24/2024
Index Date (METOP-C) Time (METOP-C) Lat,Lon (METOP-C) SZA (METOP-C ) Date (LANDSAT-8) Time (LANDSAT-8) Lat,Lon (LANDSAT-8) SZA (LANDSAT-8 ) Distance(km) Time Diff (sec)
1 02/25/2024 11:12:44 81.13, 51.26 91.95 02/25/2024 11:13:56 81.13, 51.14 91.97 2.04 72
2 02/25/2024 12:03:24 -81.15,-140.81 87.99 02/25/2024 12:03:22 -81.14,-140.97 88.01 2.70 2
3 02/28/2024 06:47:07 81.13, 117.64 90.91 02/28/2024 06:48:09 81.13, 117.71 90.95 1.42 62
4 02/28/2024 07:37:47 -81.15, -74.38 89.03 02/28/2024 07:37:35 -81.15, -74.38 89.03 0.31 12
5 03/02/2024 02:21:30 81.12,-176.05 89.85 03/02/2024 02:22:22 81.13,-175.94 89.88 2.12 52
6 03/02/2024 03:12:10 -81.15, -8.03 90.09 03/02/2024 03:11:48 -81.15, -8.01 90.10 0.37 22
7 03/04/2024 21:55:52 81.13,-109.45 88.81 03/04/2024 21:56:34 81.13,-109.42 88.83 0.44 42
8 03/04/2024 22:46:32 -81.15, 58.62 91.12 03/04/2024 22:46:00 -81.15, 58.52 91.15 1.69 32
9 03/07/2024 17:30:14 81.12, -43.29 87.70 03/07/2024 17:30:45 81.12, -43.12 87.73 2.81 31



Historial Predications of SNOs between METOP-C and LANDSAT-8
